Location: Jackson Park
(37.2862°N, 79.9123°W)
Time: 13:52:59
(UTC+00:00)

S-56A Canister/Altair - Pass Details

Date: 16 May 2026
Orbit: 633 x 2484 km, 38.9° (Epoch: 6 June)

Event Time Altitude Azimuth Distance (km) Brightness Sun altitude
Rises 01:47:07 0° 249° (WSW) 3,125 11.1 -15.2°
Reaches altitude 10° 01:49:37 10° 248° (WSW) 2,095 10.1 -15.6°
Maximum altitude 01:54:12 76° 163° (SSE) 652 7.0 -16.3°
Enters shadow 01:57:45 16° 79° (E) 1,678 8.9 -16.8°
Drops below altitude 10° 01:58:44 10° 78° (ENE) 2,072 - -17.0°
Sets 02:01:11 0° 77° (ENE) 3,087 - -17.3°
